Year,Month,Day,Hour,Minute,Value (Times are PST for temperature in C)
2016,04,11,00,27,11.20
2016,04,11,00,28,11.20
2016,04,11,00,29,11.20
2016,04,11,00,30,11.20
2016,04,11,00,31,11.20
2016,04,11,00,32,11.20
2016,04,11,00,33,11.20
2016,04,11,00,34,11.20
2016,04,11,00,35,11.20
2016,04,11,00,36,11.20
2016,04,11,00,37,11.20
2016,04,11,00,38,11.20
2016,04,11,00,39,11.10
2016,04,11,00,40,11.10
2016,04,11,00,41,11.10
2016,04,11,00,42,11.10
2016,04,11,00,43,11.10
2016,04,11,00,44,11.10
2016,04,11,00,45,11.10
2016,04,11,00,46,11.10
2016,04,11,00,47,11.10
2016,04,11,00,48,11.10
2016,04,11,00,49,11.10
2016,04,11,00,50,11.10
2016,04,11,00,51,11.10
2016,04,11,00,52,11.10
2016,04,11,00,53,11.10
2016,04,11,00,54,11.10
2016,04,11,00,55,11.10
2016,04,11,00,56,11.10
2016,04,11,00,57,11.10
2016,04,11,00,58,11.10
2016,04,11,00,59,11.10
2016,04,11,01,00,11.10
2016,04,11,01,01,11.10
2016,04,11,01,02,11.10
2016,04,11,01,03,11.10
2016,04,11,01,04,11.10
2016,04,11,01,05,11.10
2016,04,11,01,06,11.10
2016,04,11,01,07,11.20
2016,04,11,01,08,11.20
2016,04,11,01,09,11.20
2016,04,11,01,10,11.20
2016,04,11,01,11,11.20
2016,04,11,01,12,11.20
2016,04,11,01,13,11.20
2016,04,11,01,14,11.20
2016,04,11,01,16,11.20
2016,04,11,01,17,11.20
2016,04,11,01,18,11.20
2016,04,11,01,19,11.20
2016,04,11,01,21,11.10
2016,04,11,01,22,11.10
2016,04,11,01,23,11.10
2016,04,11,01,24,11.10
2016,04,11,01,26,11.10
2016,04,11,01,27,11.10
2016,04,11,01,28,11.10
2016,04,11,01,29,11.10
2016,04,11,01,31,11.10
2016,04,11,01,32,11.10
2016,04,11,01,33,11.10
2016,04,11,01,34,11.10
2016,04,11,01,36,11.10
2016,04,11,01,37,11.10
2016,04,11,01,38,11.10
2016,04,11,01,39,11.10
2016,04,11,01,41,11.10
2016,04,11,01,42,11.10
2016,04,11,01,43,11.10
2016,04,11,01,44,11.10
2016,04,11,01,46,11.10
2016,04,11,01,47,11.10
2016,04,11,02,27,11.10
2016,04,11,02,28,11.10
2016,04,11,02,29,11.10
2016,04,11,02,30,11.10
2016,04,11,02,31,11.10
2016,04,11,02,32,11.10
2016,04,11,02,33,11.10
2016,04,11,02,34,11.10
2016,04,11,02,35,11.10
2016,04,11,02,36,11.10
2016,04,11,02,37,11.10
2016,04,11,02,38,11.10
2016,04,11,02,39,11.10
2016,04,11,02,40,11.10
2016,04,11,02,41,11.10
2016,04,11,02,42,11.10
2016,04,11,02,43,11.10
2016,04,11,02,44,11.10
2016,04,11,02,45,11.10
2016,04,11,02,46,11.10
2016,04,11,02,47,11.10
2016,04,11,02,48,11.10
2016,04,11,02,49,11.10
2016,04,11,02,50,11.10
2016,04,11,02,51,11.10
2016,04,11,02,52,11.10
2016,04,11,02,53,11.10
2016,04,11,02,54,11.10
2016,04,11,02,55,11.10
2016,04,11,02,56,11.10
2016,04,11,02,57,11.10
2016,04,11,02,58,11.10
2016,04,11,02,59,11.10
2016,04,11,03,00,11.10
2016,04,11,03,01,11.10
2016,04,11,03,02,11.10
2016,04,11,03,03,11.10
2016,04,11,03,04,11.10
2016,04,11,03,05,11.10
2016,04,11,03,06,11.10
2016,04,11,03,07,11.10
2016,04,11,03,08,11.10
2016,04,11,03,09,11.10
2016,04,11,03,11,11.10
2016,04,11,03,12,11.10
2016,04,11,03,13,10.90
2016,04,11,03,14,10.90
2016,04,11,03,16,10.90
2016,04,11,03,17,10.90
2016,04,11,03,18,10.90
2016,04,11,03,19,10.90
2016,04,11,03,21,10.90
2016,04,11,03,22,10.90
2016,04,11,03,23,10.90
2016,04,11,03,24,10.90
2016,04,11,03,26,10.90
2016,04,11,03,27,10.90
2016,04,11,03,28,10.90
2016,04,11,03,29,10.90
2016,04,11,03,31,10.90
2016,04,11,03,32,10.90
2016,04,11,03,33,10.90
2016,04,11,03,34,10.90
2016,04,11,03,36,10.90
2016,04,11,03,37,10.90
2016,04,11,03,38,10.90
2016,04,11,03,39,10.90
2016,04,11,03,41,10.90
2016,04,11,03,42,10.90
2016,04,11,03,43,10.90
2016,04,11,03,44,10.90
2016,04,11,03,46,10.90
2016,04,11,03,47,10.90
2016,04,11,03,48,10.90
2016,04,11,03,49,10.90
2016,04,11,03,51,10.90
2016,04,11,03,52,10.90
2016,04,11,03,53,10.90
2016,04,11,03,54,10.90
2016,04,11,03,56,10.90
2016,04,11,03,57,10.90
2016,04,11,03,58,10.90
2016,04,11,03,59,10.90
2016,04,11,04,01,10.90
2016,04,11,04,02,10.90
2016,04,11,04,03,10.90
2016,04,11,04,04,10.90
2016,04,11,04,06,10.90
2016,04,11,04,07,10.90
2016,04,11,04,08,10.90
2016,04,11,04,09,10.90
2016,04,11,04,11,10.90
2016,04,11,04,12,10.90
2016,04,11,04,13,10.90
2016,04,11,04,14,10.90
2016,04,11,04,16,10.90
2016,04,11,04,17,10.90
2016,04,11,04,18,10.80
2016,04,11,04,19,10.80
2016,04,11,04,21,10.80
2016,04,11,04,22,10.80
2016,04,11,04,23,10.80
2016,04,11,04,24,10.80
2016,04,11,04,25,10.80
2016,04,11,04,26,10.80
2016,04,11,04,27,10.80
2016,04,11,04,28,10.80
2016,04,11,04,29,10.80
2016,04,11,04,30,10.80
2016,04,11,04,31,10.80
2016,04,11,04,32,10.80
2016,04,11,04,33,10.80
2016,04,11,04,34,10.80
2016,04,11,04,35,10.70
2016,04,11,04,36,10.70
2016,04,11,04,37,10.70
2016,04,11,04,38,10.70
2016,04,11,04,39,10.70
2016,04,11,04,41,10.70
2016,04,11,04,42,10.70
2016,04,11,04,43,10.70
2016,04,11,04,44,10.70
2016,04,11,04,45,10.70
2016,04,11,04,46,10.70
2016,04,11,04,47,10.70
2016,04,11,04,48,10.70
2016,04,11,04,49,10.70
2016,04,11,04,50,10.70
2016,04,11,04,51,10.70
2016,04,11,04,52,10.70
2016,04,11,04,53,10.60
2016,04,11,04,54,10.60
2016,04,11,04,55,10.60
2016,04,11,04,56,10.60
2016,04,11,04,57,10.60
2016,04,11,04,58,10.60
2016,04,11,04,59,10.60
2016,04,11,05,00,10.60
2016,04,11,05,01,10.60
2016,04,11,05,02,10.60
2016,04,11,05,03,10.60
2016,04,11,05,04,10.60
2016,04,11,05,05,10.60
2016,04,11,05,06,10.60
2016,04,11,05,07,10.60
2016,04,11,05,08,10.60
2016,04,11,05,09,10.60
2016,04,11,05,10,10.60
2016,04,11,05,11,10.60
2016,04,11,05,12,10.60
2016,04,11,05,13,10.60
2016,04,11,05,14,10.60
2016,04,11,05,15,10.60
2016,04,11,05,16,10.60
2016,04,11,05,17,10.60
2016,04,11,05,18,10.60
2016,04,11,05,19,10.60
2016,04,11,05,20,10.60
2016,04,11,05,21,10.60
2016,04,11,05,22,10.60
2016,04,11,05,23,10.60
2016,04,11,05,24,10.60
2016,04,11,05,25,10.60
2016,04,11,05,26,10.60
2016,04,11,05,27,10.40
2016,04,11,06,27,10.30
2016,04,11,06,28,10.30
2016,04,11,06,29,10.30
2016,04,11,06,30,10.30
2016,04,11,06,31,10.30
2016,04,11,06,32,10.30
2016,04,11,06,33,10.30
2016,04,11,06,34,10.30
2016,04,11,06,35,10.30
2016,04,11,06,36,10.30
2016,04,11,06,37,10.30
2016,04,11,06,38,10.30
2016,04,11,06,39,10.30
2016,04,11,06,40,10.30
2016,04,11,06,41,10.30
2016,04,11,06,42,10.30
2016,04,11,06,43,10.30
2016,04,11,06,44,10.30
2016,04,11,06,45,10.30
2016,04,11,06,46,10.30
2016,04,11,06,47,10.40
2016,04,11,06,48,10.40
2016,04,11,06,49,10.40
2016,04,11,06,50,10.40
2016,04,11,06,51,10.40
2016,04,11,06,52,10.40
2016,04,11,06,53,10.40
2016,04,11,06,54,10.40
2016,04,11,06,55,10.40
2016,04,11,06,56,10.40
2016,04,11,07,27,10.20
2016,04,11,07,28,10.20
2016,04,11,07,29,10.20
2016,04,11,07,30,10.20
2016,04,11,07,31,10.20
2016,04,11,07,32,10.10
2016,04,11,07,33,10.10
2016,04,11,07,34,10.10
2016,04,11,07,35,10.10
2016,04,11,07,36,10.10
2016,04,11,07,37,10.10
2016,04,11,07,38,10.10
2016,04,11,07,39,10.10
2016,04,11,07,40,10.10
2016,04,11,07,41,10.10
2016,04,11,07,42,10.10
2016,04,11,07,43,10.10
2016,04,11,07,44,10.10
2016,04,11,07,45,10.10
2016,04,11,07,46,10.10
2016,04,11,07,47,10.10
2016,04,11,07,48,10.10
2016,04,11,07,49,10.10
2016,04,11,07,50,10.10
2016,04,11,07,51,10.10
2016,04,11,07,52,10.10
2016,04,11,07,53,10.10
2016,04,11,07,54,10.10
2016,04,11,07,55,10.10
2016,04,11,07,56,10.10
2016,04,11,07,57,10.10
2016,04,11,07,58,10.10
2016,04,11,07,59,10.10
2016,04,11,08,00,10.20
2016,04,11,08,01,10.20
2016,04,11,08,02,10.20
2016,04,11,08,03,10.20
2016,04,11,08,04,10.30
2016,04,11,08,05,10.30
2016,04,11,08,06,10.30
2016,04,11,08,07,10.30
2016,04,11,08,08,10.40
2016,04,11,08,09,10.40
2016,04,11,08,10,10.40
2016,04,11,08,11,10.40
2016,04,11,08,12,10.40
2016,04,11,08,14,10.40
2016,04,11,08,16,10.40
2016,04,11,08,17,10.40
2016,04,11,08,18,10.40
2016,04,11,08,19,10.40
2016,04,11,08,21,10.60
2016,04,11,08,22,10.60
2016,04,11,08,23,10.60
2016,04,11,08,24,10.60
2016,04,11,08,26,10.60
2016,04,11,08,27,10.60
2016,04,11,08,28,10.60
2016,04,11,08,29,10.70
2016,04,11,08,31,10.70
2016,04,11,08,32,10.70
2016,04,11,08,33,10.70
2016,04,11,08,34,10.70
2016,04,11,08,36,10.70
2016,04,11,08,37,10.70
2016,04,11,08,38,10.80
2016,04,11,08,39,10.80
2016,04,11,08,41,10.80
2016,04,11,08,43,10.80
2016,04,11,08,44,10.90
2016,04,11,08,46,10.90
2016,04,11,08,47,10.90
2016,04,11,08,48,10.90
2016,04,11,08,49,11.10
2016,04,11,08,51,11.10
2016,04,11,08,52,11.10
2016,04,11,08,53,11.10
2016,04,11,08,54,11.10
2016,04,11,08,56,11.10
2016,04,11,08,57,11.10
2016,04,11,08,58,11.10
2016,04,11,08,59,11.10
2016,04,11,09,01,11.10
2016,04,11,09,02,11.10
2016,04,11,09,03,11.10
2016,04,11,09,04,11.10
2016,04,11,09,06,11.10
2016,04,11,09,07,11.20
2016,04,11,09,08,11.20
2016,04,11,09,09,11.20
2016,04,11,09,11,11.20
2016,04,11,09,12,11.20
2016,04,11,09,13,11.10
2016,04,11,09,14,11.10
2016,04,11,09,16,11.20
2016,04,11,09,17,11.20
2016,04,11,09,18,11.20
2016,04,11,09,19,11.20
2016,04,11,09,21,11.20
2016,04,11,09,22,11.20
2016,04,11,09,23,11.20
2016,04,11,09,24,11.30
2016,04,11,09,26,11.30
2016,04,11,09,27,11.30
2016,04,11,09,28,11.40
2016,04,11,09,29,11.40
2016,04,11,09,31,11.40
2016,04,11,09,32,11.40
2016,04,11,09,33,11.40
2016,04,11,09,34,11.40
2016,04,11,09,36,11.40
2016,04,11,09,37,11.40
2016,04,11,09,38,11.40
2016,04,11,09,39,11.60
2016,04,11,09,40,11.60
2016,04,11,09,41,11.60
2016,04,11,09,42,11.70
2016,04,11,09,43,11.80
2016,04,11,09,44,11.80
2016,04,11,09,45,11.90
2016,04,11,09,46,11.90
2016,04,11,09,47,11.90
2016,04,11,09,48,11.80
2016,04,11,09,49,11.80
2016,04,11,09,50,11.90
2016,04,11,09,51,11.90
2016,04,11,09,52,12.00
2016,04,11,09,53,12.00
2016,04,11,09,54,12.10
2016,04,11,09,55,12.10
2016,04,11,09,56,12.10
2016,04,11,09,57,12.10
2016,04,11,09,58,12.10
2016,04,11,09,59,12.10
2016,04,11,10,00,12.00
2016,04,11,10,01,12.00
2016,04,11,10,02,12.00
2016,04,11,10,03,11.90
2016,04,11,10,04,11.90
2016,04,11,10,05,11.90
2016,04,11,10,06,11.90
2016,04,11,10,07,11.90
2016,04,11,10,08,11.90
2016,04,11,10,09,11.80
2016,04,11,10,10,11.80
2016,04,11,10,11,11.90
2016,04,11,10,12,11.90
2016,04,11,10,13,11.90
2016,04,11,10,14,11.80
2016,04,11,10,15,11.80
2016,04,11,10,16,11.80
2016,04,11,10,17,11.80
2016,04,11,10,18,11.80
2016,04,11,10,19,11.80
2016,04,11,10,20,11.90
2016,04,11,10,21,11.90
2016,04,11,10,22,11.90
2016,04,11,10,23,11.90
2016,04,11,10,24,11.90
2016,04,11,10,25,11.90
2016,04,11,10,26,11.90
2016,04,11,10,27,11.90
2016,04,11,10,28,11.90
2016,04,11,10,29,11.90
2016,04,11,10,30,11.90
2016,04,11,10,31,11.90
2016,04,11,10,32,11.90
2016,04,11,10,33,11.80
2016,04,11,10,34,11.80
2016,04,11,10,35,11.90
2016,04,11,10,36,11.90
2016,04,11,10,37,11.90
2016,04,11,10,38,11.90
2016,04,11,10,39,12.00
2016,04,11,10,40,12.00
2016,04,11,10,41,11.90
2016,04,11,10,42,11.90
2016,04,11,10,43,11.90
2016,04,11,10,44,11.90
2016,04,11,10,45,11.90
2016,04,11,10,46,11.90
2016,04,11,10,47,11.90
2016,04,11,10,48,11.90
2016,04,11,10,49,11.90
2016,04,11,10,50,11.90
2016,04,11,10,51,11.90
2016,04,11,10,52,11.90
2016,04,11,10,53,12.00
2016,04,11,10,54,12.00
2016,04,11,10,55,12.00
2016,04,11,10,56,12.10
2016,04,11,10,57,12.10
2016,04,11,10,58,12.20
2016,04,11,10,59,12.30
2016,04,11,11,00,12.30
2016,04,11,11,01,12.30
2016,04,11,11,02,12.30
2016,04,11,11,03,12.30
2016,04,11,11,04,12.30
2016,04,11,11,06,12.20
2016,04,11,11,07,12.20
2016,04,11,11,08,12.10
2016,04,11,11,09,12.10
2016,04,11,11,11,12.00
2016,04,11,11,12,12.00
2016,04,11,11,13,12.00
2016,04,11,11,14,12.00
2016,04,11,11,16,12.00
2016,04,11,11,17,12.00
2016,04,11,11,18,12.00
2016,04,11,11,19,12.00
2016,04,11,11,21,11.90
2016,04,11,11,22,11.90
2016,04,11,11,23,11.90
2016,04,11,11,24,12.00
2016,04,11,11,26,12.00
2016,04,11,11,27,12.00
2016,04,11,11,28,12.00
2016,04,11,11,29,12.00
2016,04,11,11,31,12.00
2016,04,11,11,32,12.00
2016,04,11,11,33,12.00
2016,04,11,11,34,12.00
2016,04,11,11,36,11.90
2016,04,11,11,37,11.90
2016,04,11,11,38,12.00
2016,04,11,11,39,12.00
2016,04,11,11,41,12.00
2016,04,11,11,42,12.00
2016,04,11,11,43,12.00
2016,04,11,11,44,12.00
2016,04,11,11,46,12.10
2016,04,11,11,47,12.10
2016,04,11,11,48,12.10
2016,04,11,11,49,12.10
2016,04,11,11,51,12.20
2016,04,11,11,52,12.20
2016,04,11,11,53,12.20
2016,04,11,11,54,12.30
2016,04,11,11,56,12.30
2016,04,11,11,57,12.30
2016,04,11,11,58,12.30
2016,04,11,11,59,12.30
2016,04,11,12,01,12.40
2016,04,11,12,02,12.40
2016,04,11,12,03,12.50
2016,04,11,12,04,12.50
2016,04,11,12,06,12.70
2016,04,11,12,07,12.70
2016,04,11,12,08,12.80
2016,04,11,12,09,12.80
2016,04,11,12,11,12.90
2016,04,11,12,12,12.90
2016,04,11,12,13,13.00
2016,04,11,12,14,13.00
2016,04,11,12,16,13.20
2016,04,11,12,17,13.20
2016,04,11,12,18,13.30
2016,04,11,12,19,13.30
2016,04,11,12,21,13.30
2016,04,11,12,22,13.30
2016,04,11,12,23,13.30
2016,04,11,12,24,13.30
2016,04,11,12,25,13.30
2016,04,11,12,26,13.30
2016,04,11,12,27,13.30
2016,04,11,12,28,13.30
2016,04,11,12,29,13.30
2016,04,11,12,30,13.30
2016,04,11,12,31,13.30
2016,04,11,12,32,13.30
2016,04,11,12,33,13.20
2016,04,11,12,34,13.20
2016,04,11,12,35,13.20
2016,04,11,12,36,13.20
2016,04,11,12,37,13.20
2016,04,11,12,38,13.20
2016,04,11,12,39,13.10
2016,04,11,12,40,13.10
2016,04,11,12,41,13.10
2016,04,11,12,42,13.00
2016,04,11,12,43,13.00
2016,04,11,12,44,13.00
2016,04,11,12,45,12.90
2016,04,11,12,46,12.90
2016,04,11,12,47,12.90
2016,04,11,12,48,12.90
2016,04,11,12,49,12.80
2016,04,11,12,50,12.80
2016,04,11,12,51,12.80
2016,04,11,12,52,12.80
2016,04,11,12,53,12.80
2016,04,11,12,54,12.80
2016,04,11,14,27,13.10
2016,04,11,14,28,13.10
2016,04,11,14,29,13.10
2016,04,11,14,30,13.10
2016,04,11,14,31,13.00
2016,04,11,14,32,13.00
2016,04,11,14,33,13.10
2016,04,11,14,34,13.10
2016,04,11,14,35,13.20
2016,04,11,14,36,13.20
2016,04,11,14,37,13.30
2016,04,11,14,38,13.30
2016,04,11,14,39,13.30
2016,04,11,14,40,13.30
2016,04,11,14,41,13.30
2016,04,11,14,42,13.30
2016,04,11,14,43,13.30
2016,04,11,14,44,13.30
2016,04,11,14,45,13.30
2016,04,11,14,46,13.30
2016,04,11,14,47,13.30
2016,04,11,14,48,13.30
2016,04,11,14,49,13.30
2016,04,11,14,50,13.30
2016,04,11,14,51,13.30
2016,04,11,14,52,13.30
2016,04,11,14,53,13.30
2016,04,11,14,54,13.20
2016,04,11,14,55,13.30
2016,04,11,14,56,13.30
2016,04,11,14,57,13.30
2016,04,11,14,58,13.30
2016,04,11,14,59,13.20
2016,04,11,15,00,13.20
2016,04,11,15,01,13.20
2016,04,11,15,02,13.20
2016,04,11,15,03,13.20
2016,04,11,15,04,13.20
2016,04,11,15,05,13.30
2016,04,11,15,06,13.30
2016,04,11,15,08,13.30
2016,04,11,15,09,13.20
2016,04,11,15,11,13.10
2016,04,11,15,12,13.10
2016,04,11,15,13,13.00
2016,04,11,15,14,12.90
2016,04,11,15,16,12.80
2016,04,11,15,17,12.80
2016,04,11,15,18,12.80
2016,04,11,15,19,12.80
2016,04,11,15,21,12.80
2016,04,11,15,22,12.80
2016,04,11,15,23,12.80
2016,04,11,15,24,12.90
2016,04,11,15,26,13.00
2016,04,11,15,27,13.10
2016,04,11,15,28,13.10
2016,04,11,15,29,13.20
2016,04,11,15,31,13.30
2016,04,11,15,32,13.30
2016,04,11,15,33,13.30
2016,04,11,15,34,13.30
2016,04,11,15,36,13.40
2016,04,11,15,37,13.40
2016,04,11,15,38,13.50
2016,04,11,15,39,13.50
2016,04,11,15,41,13.50
2016,04,11,15,42,13.50
2016,04,11,15,43,13.50
2016,04,11,15,44,13.50
2016,04,11,15,46,13.40
2016,04,11,15,47,13.40
2016,04,11,15,48,13.30
2016,04,11,15,49,13.30
2016,04,11,15,51,13.30
2016,04,11,15,52,13.30
2016,04,11,15,53,13.30
2016,04,11,15,54,13.20
2016,04,11,15,56,13.20
2016,04,11,15,57,13.20
2016,04,11,15,58,13.10
2016,04,11,15,59,13.10
2016,04,11,16,01,13.10
2016,04,11,16,02,13.00
2016,04,11,16,03,13.00
2016,04,11,16,04,12.90
2016,04,11,16,06,12.80
2016,04,11,16,07,12.80
2016,04,11,16,08,12.80
2016,04,11,16,09,12.80
2016,04,11,16,11,12.70
2016,04,11,16,12,12.70
2016,04,11,16,13,12.70
2016,04,11,16,14,12.60
2016,04,11,16,16,12.50
2016,04,11,16,17,12.50
2016,04,11,16,18,12.50
2016,04,11,16,19,12.40
2016,04,11,16,21,12.40
2016,04,11,16,22,12.40
2016,04,11,16,23,12.30
2016,04,11,16,24,12.30
2016,04,11,16,26,12.30
2016,04,11,16,27,12.30
2016,04,11,16,28,12.30
2016,04,11,16,29,12.30
2016,04,11,16,30,12.30
2016,04,11,16,31,12.30
2016,04,11,16,32,12.30
2016,04,11,16,33,12.30
2016,04,11,16,34,12.30
2016,04,11,16,35,12.30
2016,04,11,16,36,12.30
2016,04,11,16,37,12.20
2016,04,11,16,38,12.20
2016,04,11,16,39,12.20
2016,04,11,16,40,12.10
2016,04,11,16,41,12.10
2016,04,11,16,42,12.10
2016,04,11,16,43,12.10
2016,04,11,16,44,12.00
2016,04,11,16,45,12.00
2016,04,11,16,46,12.00
2016,04,11,16,47,12.00
2016,04,11,16,48,12.00
2016,04,11,16,49,12.00
2016,04,11,16,50,12.00
2016,04,11,16,51,12.00
2016,04,11,16,52,12.00
2016,04,11,16,53,11.90
2016,04,11,16,54,11.90
2016,04,11,16,55,11.90
2016,04,11,16,56,11.90
2016,04,11,16,57,11.90
2016,04,11,16,58,11.90
2016,04,11,16,59,11.90
2016,04,11,17,00,11.90
2016,04,11,17,01,11.90
2016,04,11,17,02,11.90
2016,04,11,17,03,11.90
2016,04,11,17,04,11.90
2016,04,11,17,05,11.90
2016,04,11,17,06,11.90
2016,04,11,17,07,11.80
2016,04,11,17,08,11.80
2016,04,11,17,09,11.80
2016,04,11,17,10,11.80
2016,04,11,17,11,11.80
2016,04,11,17,12,11.80
2016,04,11,17,13,11.80
2016,04,11,17,14,11.80
2016,04,11,17,15,11.80
2016,04,11,17,16,11.80
2016,04,11,17,17,11.80
2016,04,11,17,18,11.80
2016,04,11,17,19,11.80
2016,04,11,17,20,11.80
2016,04,11,17,21,11.90
2016,04,11,17,22,11.90
2016,04,11,17,23,11.90
2016,04,11,17,24,11.90
2016,04,11,17,25,11.90
2016,04,11,17,26,11.90
2016,04,11,17,27,11.90
2016,04,11,17,28,11.90
2016,04,11,17,29,11.90
2016,04,11,17,30,11.90
2016,04,11,17,31,11.90
2016,04,11,17,32,11.90
2016,04,11,17,33,11.90
2016,04,11,17,34,11.90
2016,04,11,17,35,11.90
2016,04,11,17,36,11.90
2016,04,11,17,37,11.80
2016,04,11,17,38,11.80
2016,04,11,17,39,11.80
2016,04,11,17,40,11.80
2016,04,11,17,41,11.80
2016,04,11,17,42,11.80
2016,04,11,17,43,11.80
2016,04,11,17,44,11.80
2016,04,11,17,45,11.80
2016,04,11,17,46,11.70
2016,04,11,17,47,11.70
2016,04,11,17,48,11.70
2016,04,11,17,49,11.70
2016,04,11,17,50,11.70
2016,04,11,17,51,11.60
2016,04,11,17,52,11.60
2016,04,11,17,53,11.60
2016,04,11,17,54,11.60
2016,04,11,17,55,11.60
2016,04,11,17,56,11.60
2016,04,11,17,57,11.60
2016,04,11,17,58,11.60
2016,04,11,17,59,11.60
2016,04,11,18,00,11.60
2016,04,11,18,02,11.60
2016,04,11,18,03,11.60
2016,04,11,18,04,11.60
2016,04,11,18,06,11.60
2016,04,11,18,07,11.60
2016,04,11,18,08,11.40
2016,04,11,18,09,11.40
2016,04,11,18,10,11.40
2016,04,11,18,12,11.40
2016,04,11,18,13,11.40
2016,04,11,18,14,11.40
2016,04,11,18,16,11.40
2016,04,11,18,17,11.40
2016,04,11,18,18,11.40
2016,04,11,18,19,11.40
2016,04,11,18,21,11.40
2016,04,11,18,22,11.40
2016,04,11,18,23,11.40
2016,04,11,18,24,11.40
2016,04,11,18,26,11.30
2016,04,11,18,27,11.30
2016,04,11,18,28,11.30
2016,04,11,18,29,11.30
2016,04,11,18,31,11.30
2016,04,11,18,32,11.30
2016,04,11,18,33,11.30
2016,04,11,18,34,11.20
2016,04,11,18,36,11.20
2016,04,11,18,37,11.20
2016,04,11,18,38,11.20
2016,04,11,18,39,11.20
2016,04,11,18,41,11.10
2016,04,11,18,42,11.10
2016,04,11,18,43,11.10
2016,04,11,18,44,11.10
2016,04,11,18,46,11.10
2016,04,11,18,47,11.10
2016,04,11,18,48,11.10
2016,04,11,18,49,11.10
2016,04,11,18,51,11.10
2016,04,11,18,52,10.90
2016,04,11,18,53,10.90
2016,04,11,18,54,10.90
2016,04,11,18,56,10.90
2016,04,11,18,57,10.90
2016,04,11,18,58,10.90
2016,04,11,18,59,10.90
2016,04,11,19,01,10.90
2016,04,11,19,02,10.90
2016,04,11,19,03,10.90
2016,04,11,19,04,10.90
2016,04,11,19,06,10.90
2016,04,11,19,07,10.90
2016,04,11,19,08,10.90
2016,04,11,19,09,10.90
2016,04,11,19,11,10.90
2016,04,11,19,12,10.90
2016,04,11,19,13,10.90
2016,04,11,19,14,10.90
2016,04,11,19,15,10.90
2016,04,11,19,16,10.80
2016,04,11,19,17,10.80
2016,04,11,19,18,10.80
2016,04,11,19,19,10.80
2016,04,11,19,20,10.80
2016,04,11,19,21,10.80
2016,04,11,19,22,10.80
2016,04,11,19,23,10.80
2016,04,11,19,24,10.80
2016,04,11,19,25,10.80
2016,04,11,19,26,10.80
2016,04,11,19,27,10.80
2016,04,11,19,28,10.80
2016,04,11,19,29,10.80
2016,04,11,19,30,10.80
2016,04,11,19,31,10.80
2016,04,11,19,32,10.80
2016,04,11,19,33,10.80
2016,04,11,19,34,10.80
2016,04,11,19,35,10.80
2016,04,11,19,36,10.80
2016,04,11,19,37,10.80
2016,04,11,19,38,10.80
2016,04,11,19,39,10.80
2016,04,11,19,40,10.80
2016,04,11,19,41,10.80
2016,04,11,19,42,10.80
2016,04,11,19,43,10.70
2016,04,11,19,44,10.70
2016,04,11,19,45,10.70
2016,04,11,19,46,10.70
2016,04,11,19,47,10.70
2016,04,11,19,48,10.70
2016,04,11,19,49,10.70
2016,04,11,19,50,10.70
2016,04,11,19,51,10.70
2016,04,11,19,52,10.70
2016,04,11,19,53,10.70
2016,04,11,19,54,10.70
2016,04,11,19,55,10.70
2016,04,11,19,56,10.70
2016,04,11,19,57,10.70
2016,04,11,19,58,10.70
2016,04,11,19,59,10.70
2016,04,11,20,00,10.70
2016,04,11,20,01,10.60
2016,04,11,20,02,10.60
2016,04,11,20,03,10.60
2016,04,11,20,04,10.60
2016,04,11,20,05,10.60
2016,04,11,20,06,10.60
2016,04,11,20,07,10.60
2016,04,11,20,08,10.60
2016,04,11,20,09,10.60
2016,04,11,20,10,10.60
2016,04,11,20,11,10.60
2016,04,11,20,12,10.60
2016,04,11,20,13,10.60
2016,04,11,20,14,10.60
2016,04,11,20,15,10.60
2016,04,11,20,16,10.60
2016,04,11,20,17,10.60
2016,04,11,20,18,10.60
2016,04,11,20,19,10.60
2016,04,11,20,20,10.60
2016,04,11,20,21,10.60
2016,04,11,20,22,10.60
2016,04,11,20,23,10.60
2016,04,11,20,24,10.60
2016,04,11,20,25,10.60
2016,04,11,20,26,10.60
2016,04,11,20,27,10.60
2016,04,11,20,28,10.60
2016,04,11,20,29,10.60
2016,04,11,20,30,10.60
2016,04,11,20,31,10.60
2016,04,11,20,32,10.60
2016,04,11,20,33,10.60
2016,04,11,20,34,10.60
2016,04,11,20,35,10.60
2016,04,11,20,36,10.60
2016,04,11,20,37,10.60
2016,04,11,20,38,10.60
2016,04,11,20,39,10.40
2016,04,11,20,40,10.40
2016,04,11,20,41,10.40
2016,04,11,20,42,10.40
2016,04,11,20,43,10.40
2016,04,11,20,44,10.40
2016,04,11,20,45,10.40
2016,04,11,20,46,10.40
2016,04,11,20,47,10.40
2016,04,11,20,48,10.40
2016,04,11,20,49,10.40
2016,04,11,20,50,10.40
2016,04,11,20,51,10.40
2016,04,11,20,52,10.40
2016,04,11,20,53,10.40
2016,04,11,20,54,10.40
2016,04,11,20,55,10.40
2016,04,11,20,57,10.40
2016,04,11,20,58,10.40
2016,04,11,20,59,10.40
2016,04,11,21,01,10.40
2016,04,11,21,02,10.40
2016,04,11,21,03,10.40
2016,04,11,21,04,10.40
2016,04,11,21,06,10.40
2016,04,11,21,07,10.40
2016,04,11,21,08,10.40
2016,04,11,21,09,10.40
2016,04,11,21,11,10.40
2016,04,11,21,12,10.40
2016,04,11,21,13,10.40
2016,04,11,21,14,10.40
2016,04,11,21,16,10.40
2016,04,11,21,17,10.40
2016,04,11,21,18,10.40
2016,04,11,21,19,10.40
2016,04,11,21,21,10.40
2016,04,11,21,22,10.40
2016,04,11,21,23,10.40
2016,04,11,21,24,10.40
2016,04,11,21,26,10.40
2016,04,11,21,27,10.40
2016,04,11,21,28,10.40
2016,04,11,21,29,10.30
2016,04,11,21,31,10.30
2016,04,11,21,32,10.30
2016,04,11,21,33,10.30
2016,04,11,21,34,10.30
2016,04,11,21,36,10.30
2016,04,11,21,37,10.30
2016,04,11,21,38,10.30
2016,04,11,21,39,10.20
2016,04,11,21,41,10.20
2016,04,11,21,42,10.20
2016,04,11,21,43,10.20
2016,04,11,21,44,10.20
2016,04,11,21,46,10.20
2016,04,11,21,47,10.20
2016,04,11,21,48,10.20
2016,04,11,21,49,10.20
2016,04,11,21,51,10.20
2016,04,11,21,52,10.20
2016,04,11,21,53,10.10
2016,04,11,21,54,10.10
2016,04,11,21,56,10.10
2016,04,11,21,57,10.10
2016,04,11,21,58,10.10
2016,04,11,21,59,10.10
2016,04,11,22,01,10.10
2016,04,11,22,02,10.10
2016,04,11,22,03,10.10
2016,04,11,22,04,10.10
2016,04,11,22,06,10.10
2016,04,11,22,07,10.10
2016,04,11,22,08,10.10
2016,04,11,22,09,10.10
2016,04,11,22,10,10.10
2016,04,11,22,11,10.10
2016,04,11,22,12,10.10
2016,04,11,22,13,10.10
2016,04,11,22,14,10.10
2016,04,11,22,15,10.10
2016,04,11,22,16,10.10
2016,04,11,22,17,10.10
2016,04,11,22,18,10.10
2016,04,11,22,19,10.10
2016,04,11,22,20,10.10
2016,04,11,22,21,10.10
2016,04,11,22,22,10.10
2016,04,11,22,23,10.10
2016,04,11,22,24,10.10
2016,04,11,22,25,10.10
2016,04,11,22,26,10.10
2016,04,11,22,27,10.10
2016,04,11,22,28,10.10
2016,04,11,22,29,10.10
2016,04,11,22,30,10.10
2016,04,11,22,31,10.10
2016,04,11,22,32,10.10
2016,04,11,22,33,10.10
2016,04,11,22,34,10.10
2016,04,11,22,35,10.10
2016,04,11,22,36,10.10
2016,04,11,22,37,10.10
2016,04,11,22,38,10.10
2016,04,11,22,39,10.10
2016,04,11,22,40,10.10
2016,04,11,22,41,10.10
2016,04,11,22,42,10.10
2016,04,11,22,43,10.10
2016,04,11,22,44,10.10
2016,04,11,22,45,10.10
2016,04,11,22,46,10.10
2016,04,11,22,47,10.10
2016,04,11,22,48,9.90
2016,04,11,22,49,9.90
2016,04,11,22,50,9.90
2016,04,11,22,51,9.90
2016,04,11,22,52,9.90
2016,04,11,22,53,9.90
2016,04,11,22,54,9.90
2016,04,11,22,55,9.90
2016,04,11,22,56,9.90
2016,04,11,22,57,9.90
2016,04,11,22,58,9.90
2016,04,11,22,59,9.90
2016,04,11,23,00,9.90
2016,04,11,23,01,9.90
2016,04,11,23,02,9.90
2016,04,11,23,03,9.90
2016,04,11,23,04,9.90
2016,04,11,23,05,9.90
2016,04,11,23,06,9.90
2016,04,11,23,07,9.90
2016,04,11,23,08,9.90
2016,04,11,23,09,9.90
2016,04,11,23,10,9.90
2016,04,11,23,11,9.90
2016,04,11,23,12,9.90